SAS10C ENGM-EKCH

Flight info

Callsign SAS10C
Flight time N/A
Altitude 37000
Route OKSAT L996 KELIN DCT TOPLA L996 ERNOV
Aircraft A20N/M-SDE2E3FGHIRWXY/LB1

Departure

Time 2026-04-30 19:56
Airport Oslo-Gardermoen International Airport (ENGM)

Arrival

Time N/A
Airport Copenhagen Kastrup Airport (EKCH)
Time Latitude Longitude Altitude Speed Heading
2026-04-30 19:38 60.19556 11.09504 690 ft 0 kts 196°
2026-04-30 19:47 60.19568 11.09510 690 ft 2 kts 195°
2026-04-30 19:47 60.19577 11.09516 690 ft 2 kts 196°
2026-04-30 19:47 60.19597 11.09527 690 ft 2 kts 196°
2026-04-30 19:47 60.19611 11.09535 690 ft 2 kts 196°
2026-04-30 19:48 60.19617 11.09539 690 ft 0 kts 196°
2026-04-30 19:51 60.19616 11.09538 690 ft 0 kts 202°
2026-04-30 19:51 60.19615 11.09502 690 ft 3 kts 347°
2026-04-30 19:51 60.19653 11.09501 690 ft 6 kts 344°
2026-04-30 19:51 60.19685 11.09377 690 ft 14 kts 285°
2026-04-30 19:52 60.19712 11.09167 690 ft 15 kts 284°
2026-04-30 19:52 60.19745 11.08965 690 ft 15 kts 284°
2026-04-30 19:52 60.19772 11.08755 690 ft 15 kts 293°
2026-04-30 19:52 60.19839 11.08716 690 ft 8 kts 18°
2026-04-30 19:53 60.19902 11.08749 690 ft 12 kts 13°
2026-04-30 19:53 60.20008 11.08805 690 ft 18 kts 16°
2026-04-30 19:53 60.20142 11.08883 690 ft 20 kts 14°
2026-04-30 19:53 60.20274 11.08960 690 ft 19 kts 16°
2026-04-30 19:54 60.20405 11.09033 690 ft 19 kts 15°
2026-04-30 19:54 60.20534 11.09106 690 ft 19 kts 15°
2026-04-30 19:54 60.20634 11.09093 690 ft 14 kts 307°
2026-04-30 19:54 60.20670 11.08905 690 ft 14 kts 286°
2026-04-30 19:55 60.20704 11.08711 690 ft 12 kts 320°
2026-04-30 19:55 60.20692 11.08618 690 ft 8 kts 199°
2026-04-30 19:55 60.20581 11.08569 690 ft 38 kts 195°
2026-04-30 19:55 60.20052 11.08270 690 ft 116 kts 196°
2026-04-30 19:56 60.19062 11.07703 748 ft 171 kts 196°
2026-04-30 19:56 60.17962 11.07049 1535 ft 170 kts 197°
2026-04-30 19:56 60.16808 11.06472 2356 ft 175 kts 195°
2026-04-30 19:56 60.15648 11.05532 2857 ft 191 kts 221°
2026-04-30 19:57 60.14938 11.03254 3318 ft 203 kts 256°
2026-04-30 19:57 60.14624 11.00437 3791 ft 220 kts 251°
2026-04-30 19:57 60.13643 10.97951 4284 ft 241 kts 210°
2026-04-30 19:57 60.12053 10.97344 5267 ft 243 kts 173°
2026-04-30 19:58 60.10521 10.98754 6165 ft 247 kts 146°
2026-04-30 19:58 60.09131 11.00793 6916 ft 253 kts 147°
2026-04-30 19:58 60.07688 11.02802 7720 ft 255 kts 148°
2026-04-30 19:58 60.06228 11.04759 8577 ft 256 kts 149°
2026-04-30 19:59 60.04748 11.06698 9370 ft 258 kts 149°
2026-04-30 19:59 60.03233 11.08653 10149 ft 260 kts 150°
2026-04-30 19:59 60.00055 11.12703 11168 ft 289 kts 150°
2026-04-30 20:00 59.98312 11.14909 11573 ft 307 kts 150°
2026-04-30 20:00 59.96454 11.17258 11962 ft 325 kts 150°
2026-04-30 20:00 59.94506 11.19718 12353 ft 342 kts 149°
2026-04-30 20:00 59.92466 11.22295 13000 ft 348 kts 149°
2026-04-30 20:01 59.88356 11.27475 14459 ft 355 kts 149°
2026-04-30 20:01 59.86269 11.30101 15121 ft 360 kts 149°
2026-04-30 20:01 59.84154 11.32752 15776 ft 364 kts 149°
2026-04-30 20:02 59.79829 11.38163 17049 ft 373 kts 149°
2026-04-30 20:02 59.77634 11.40902 17651 ft 377 kts 149°
2026-04-30 20:03 59.73141 11.46496 18858 ft 385 kts 149°
2026-04-30 20:03 59.70895 11.49282 19448 ft 389 kts 149°
2026-04-30 20:03 59.68595 11.52133 20024 ft 393 kts 149°
2026-04-30 20:03 59.66267 11.55014 20598 ft 396 kts 149°
2026-04-30 20:04 59.63950 11.57877 21160 ft 400 kts 149°
2026-04-30 20:04 59.61578 11.60803 21711 ft 404 kts 148°
2026-04-30 20:04 59.59191 11.63746 22253 ft 407 kts 148°
2026-04-30 20:05 59.54378 11.69660 23299 ft 414 kts 149°
2026-04-30 20:05 59.51937 11.72652 23805 ft 417 kts 149°
2026-04-30 20:05 59.46975 11.78716 24777 ft 424 kts 149°
2026-04-30 20:06 59.44490 11.81746 25260 ft 426 kts 148°
2026-04-30 20:06 59.41963 11.84821 25720 ft 429 kts 148°
2026-04-30 20:06 59.39446 11.87879 26167 ft 432 kts 148°
2026-04-30 20:06 59.36884 11.90985 26598 ft 435 kts 148°
2026-04-30 20:07 59.34226 11.93735 26989 ft 437 kts 159°
2026-04-30 20:07 59.31280 11.95269 27395 ft 438 kts 173°
2026-04-30 20:07 59.25214 11.95126 28170 ft 441 kts 185°
2026-04-30 20:08 59.22170 11.94707 28521 ft 444 kts 185°
2026-04-30 20:08 59.19076 11.94302 28883 ft 447 kts 185°
2026-04-30 20:08 59.16012 11.93934 29228 ft 449 kts 185°
2026-04-30 20:08 59.12883 11.93582 29572 ft 452 kts 184°
2026-04-30 20:09 59.09739 11.93241 29912 ft 454 kts 184°
2026-04-30 20:09 59.06590 11.92906 30269 ft 456 kts 184°
2026-04-30 20:09 59.00391 11.92247 31803 ft 438 kts 184°
2026-04-30 20:10 58.94488 11.91611 33429 ft 415 kts 184°
2026-04-30 20:10 58.91672 11.91308 34121 ft 406 kts 184°
2026-04-30 20:10 58.88858 11.91005 34393 ft 409 kts 184°
2026-04-30 20:11 58.83100 11.90502 34620 ft 419 kts 181°
2026-04-30 20:11 58.80200 11.90651 34734 ft 424 kts 176°
2026-04-30 20:11 58.77266 11.91175 34843 ft 429 kts 173°
2026-04-30 20:12 58.71304 11.92825 35031 ft 438 kts 172°
2026-04-30 20:12 58.68307 11.93648 35116 ft 442 kts 172°
2026-04-30 20:13 58.62182 11.95313 35288 ft 450 kts 172°
2026-04-30 20:13 58.55943 11.96997 35338 ft 460 kts 172°
2026-04-30 20:14 58.49526 11.98726 35346 ft 470 kts 172°
2026-04-30 20:14 58.43033 12.00468 35344 ft 474 kts 172°
2026-04-30 20:15 58.36556 12.02200 35358 ft 474 kts 172°
2026-04-30 20:15 58.30005 12.03945 35401 ft 474 kts 172°
2026-04-30 20:16 58.23519 12.05667 35376 ft 474 kts 172°
2026-04-30 20:16 58.17010 12.07388 35379 ft 474 kts 172°
2026-04-30 20:17 58.10489 12.09106 35375 ft 474 kts 172°
2026-04-30 20:17 58.04008 12.10807 35376 ft 473 kts 172°
2026-04-30 20:18 57.97714 12.12453 35383 ft 474 kts 171°
2026-04-30 20:18 57.91193 12.14153 35392 ft 473 kts 172°
2026-04-30 20:19 57.84693 12.15842 35393 ft 473 kts 172°
2026-04-30 20:19 57.78207 12.17521 35395 ft 472 kts 171°
2026-04-30 20:20 57.71820 12.19167 35402 ft 459 kts 171°
2026-04-30 20:20 57.65529 12.20783 35401 ft 458 kts 171°
2026-04-30 20:21 57.59324 12.22371 35398 ft 438 kts 171°
2026-04-30 20:21 57.53410 12.23879 35403 ft 427 kts 171°
2026-04-30 20:22 57.47708 12.25330 35402 ft 427 kts 171°
2026-04-30 20:22 57.41877 12.26808 35405 ft 427 kts 171°
2026-04-30 20:22 57.38930 12.27553 35287 ft 423 kts 171°
2026-04-30 20:23 57.36042 12.28281 34865 ft 420 kts 171°
2026-04-30 20:23 57.33134 12.29014 34330 ft 419 kts 171°
2026-04-30 20:23 57.30296 12.29729 33835 ft 417 kts 171°
2026-04-30 20:23 57.27414 12.30453 33378 ft 415 kts 171°
2026-04-30 20:24 57.24570 12.31167 32918 ft 412 kts 171°
2026-04-30 20:24 57.21755 12.31873 32465 ft 410 kts 171°
2026-04-30 20:24 57.18939 12.32577 32021 ft 407 kts 171°
2026-04-30 20:24 57.16147 12.33274 31577 ft 404 kts 171°
2026-04-30 20:25 57.10640 12.34647 30688 ft 400 kts 171°
2026-04-30 20:25 57.07919 12.35324 30239 ft 397 kts 171°
2026-04-30 20:26 57.02491 12.36673 29354 ft 392 kts 171°
2026-04-30 20:26 56.97136 12.38001 28471 ft 387 kts 171°
2026-04-30 20:26 56.94482 12.38657 28035 ft 385 kts 171°
2026-04-30 20:27 56.89241 12.39949 27178 ft 380 kts 171°
2026-04-30 20:27 56.84032 12.41229 26294 ft 376 kts 171°
2026-04-30 20:28 56.78904 12.42487 25439 ft 371 kts 170°
2026-04-30 20:28 56.73853 12.43722 24611 ft 367 kts 170°
2026-04-30 20:29 56.68838 12.44945 23784 ft 363 kts 170°
2026-04-30 20:30 56.61422 12.46748 22588 ft 357 kts 170°
2026-04-30 20:30 56.54142 12.48512 21430 ft 350 kts 170°
2026-04-30 20:31 56.46971 12.50244 20132 ft 349 kts 170°
2026-04-30 20:32 56.39733 12.51985 18627 ft 353 kts 170°
2026-04-30 20:32 56.34864 12.53146 17622 ft 355 kts 170°
2026-04-30 20:33 56.32420 12.53728 17118 ft 356 kts 169°
2026-04-30 20:33 56.27597 12.54872 16114 ft 342 kts 169°
2026-04-30 20:33 56.25282 12.55421 15609 ft 331 kts 169°
2026-04-30 20:34 56.20881 12.56462 14607 ft 311 kts 169°
2026-04-30 20:34 56.16664 12.57363 13618 ft 308 kts 173°
2026-04-30 20:35 56.14513 12.57470 13128 ft 311 kts 176°
2026-04-30 20:35 56.12328 12.57493 12632 ft 314 kts 176°
2026-04-30 20:35 56.07910 12.57521 11523 ft 323 kts 177°
2026-04-30 20:36 56.05659 12.57539 10954 ft 327 kts 177°
2026-04-30 20:36 56.03395 12.57559 10389 ft 331 kts 177°
2026-04-30 20:36 55.98793 12.57595 9235 ft 323 kts 177°
2026-04-30 20:37 55.96596 12.57612 8658 ft 313 kts 177°
2026-04-30 20:37 55.94455 12.57630 8079 ft 303 kts 177°
2026-04-30 20:37 55.92394 12.57649 7509 ft 295 kts 177°
2026-04-30 20:37 55.90386 12.57669 6930 ft 288 kts 177°
2026-04-30 20:38 55.88397 12.57665 6345 ft 282 kts 181°
2026-04-30 20:38 55.86465 12.57185 5955 ft 278 kts 192°
2026-04-30 20:38 55.84684 12.56197 5846 ft 266 kts 198°
2026-04-30 20:39 55.81327 12.53987 5632 ft 251 kts 199°
2026-04-30 20:39 55.79714 12.52921 5533 ft 251 kts 199°
2026-04-30 20:39 55.78077 12.51850 5433 ft 250 kts 199°
2026-04-30 20:40 55.74809 12.49729 5222 ft 250 kts 199°
2026-04-30 20:40 55.73163 12.48666 5114 ft 249 kts 199°
2026-04-30 20:40 55.71541 12.47619 5016 ft 248 kts 199°
2026-04-30 20:41 55.68315 12.45542 4807 ft 247 kts 199°
2026-04-30 20:41 55.66696 12.44503 4694 ft 247 kts 199°
2026-04-30 20:41 55.65084 12.43468 4600 ft 246 kts 199°
2026-04-30 20:41 55.63477 12.42438 4513 ft 246 kts 199°
2026-04-30 20:42 55.61865 12.41404 4424 ft 245 kts 199°
2026-04-30 20:42 55.60313 12.40226 4347 ft 244 kts 209°
2026-04-30 20:42 55.57608 12.36613 4211 ft 244 kts 222°
2026-04-30 20:43 55.56347 12.34632 4132 ft 243 kts 223°
2026-04-30 20:43 55.55081 12.32649 4049 ft 243 kts 222°
2026-04-30 20:43 55.53818 12.30690 3983 ft 242 kts 222°
2026-04-30 20:44 55.51084 12.27412 3770 ft 243 kts 189°
2026-04-30 20:44 55.49423 12.27707 3573 ft 239 kts 152°
2026-04-30 20:44 55.47665 12.32155 3192 ft 228 kts 97°
2026-04-30 20:45 55.47098 12.37655 2798 ft 229 kts 97°
2026-04-30 20:45 55.46888 12.40416 2580 ft 226 kts 81°
2026-04-30 20:45 55.47489 12.42818 2484 ft 208 kts 42°
2026-04-30 20:46 55.50553 12.46990 2324 ft 167 kts 35°
2026-04-30 20:46 55.51434 12.48283 2081 ft 164 kts 36°
2026-04-30 20:47 55.53100 12.50864 1600 ft 155 kts 37°
2026-04-30 20:47 55.53892 12.52099 1387 ft 149 kts 37°
2026-04-30 20:48 55.55389 12.54421 1037 ft 140 kts 37°
2026-04-30 20:48 55.56104 12.55530 842 ft 134 kts 37°
2026-04-30 20:48 55.56794 12.56598 667 ft 133 kts 37°
2026-04-30 20:48 55.57497 12.57688 489 ft 133 kts 38°
2026-04-30 20:49 55.58183 12.58756 314 ft 132 kts 39°
2026-04-30 20:49 55.58862 12.59815 148 ft 130 kts 37°
2026-04-30 20:49 55.59543 12.60848 16 ft 124 kts 39°